Location: Larkspur
(54.4391°N, 113.7691°W)
Time: 14:01:29
(UTC+00:00)

Oscar 19 - Pass Details

Date: 06 December 2023
Orbit: 771 x 789 km, 98.9° (Epoch: 01 March)

Event Time Altitude Azimuth Distance (km) Brightness Sun altitude
Rises 13:05:51 0° 14° (NNE) 3,274 13.9 -21.0°
Reaches altitude 10° 13:08:12 10° 11° (NNE) 2,344 13.1 -20.7°
Maximum altitude 13:13:17 61° 293° (WNW) 888 10.6 -19.9°
Drops below altitude 10° 13:18:21 10° 214° (SSW) 2,340 12.9 -19.2°
Sets 13:20:41 0° 211° (SSW) 3,267 13.7 -18.9°
